Regional Weather Roundup
Issued by NWS Northern Indiana

Home | Current Version | Previous Version | Text Only | Print | Product List | Glossary On
Versions: 1 2 3 4 5 6 7 8 9 10 11 12 13 14 15 16 17 18 19 20 21 22 23 24 25 26 27 28 29 30 31 32 33 34 35 36 37 38 39 40 41 42 43 44 45 46 47 48 49 50
716
ASUS43 KIWX 041910
RWRIWX

KIWX WEATHER ROUNDUP
NATIONAL WEATHER SERVICE NORTHERN INDIANA
300 PM EDT WED MAY 04 2016

NOTE: "FAIR" INDICATES FEW OR NO CLOUDS BELOW 12,000 FEET WITH NO
SIGNIFICANT WEATHER AND/OR OBSTRUCTIONS TO VISIBILITY.

* THESE STATIONS ARE NOT UNDER NWS QUALITY CONTROL. THEY ALSO MAY NOT
  REPORT WEATHER SUCH AS PRECIPITATION OR FOG.

INZ001>027-042000-
NORTHERN INDIANA

CITY           SKY/WX    TMP DP  RH WIND       PRES   REMARKS
GARY*          CLOUDY    48  43  81 N20G35    29.80R
VALPARAISO     CLOUDY    48  38  68 N20G32    29.77R
MICHIGAN CITY* CLOUDY    45  36  70 N23G29    29.78R
LAPORTE*       CLOUDY    48  39  70 N20G36    29.76R
KNOX*          CLOUDY    46  32  57 N25G35    29.75S
SOUTH BEND     CLOUDY    44  37  76 N28G36    29.73R
ELKHART*       CLOUDY    45  41  87 NW17G28   29.70R
GOSHEN         CLOUDY    45  39  79 NW18G26   29.68R
MONTICELLO*    PTSUNNY   50  36  58 N21G29    29.75R
LOGANSPORT*    CLOUDY    46  41  81 NW14G25   29.75R
ROCHESTER*     CLOUDY    46  41  81 NW16G31   29.73R
WARSAW*        CLOUDY    45  39  81 NW22G30   29.69R
ANGOLA*        CLOUDY    46  37  71 W15       29.62R
FORT WAYNE     CLOUDY    49  42  77 W16G24    29.66R
HUNTINGTON*    CLOUDY    47  40  78 NW13G20   29.68S
PERU/GRISSOM   CLOUDY    50  41  71 NW14G25   29.71R
MARION*        CLOUDY    49  42  76 NW20G30   29.71S

$$
INZ028>050-042000-
CENTRAL INDIANA

CITY           SKY/WX    TMP DP  RH WIND       PRES   REMARKS
LAFAYETTE      CLOUDY    53  39  59 N23G29    29.75R
KOKOMO*        CLOUDY    50  37  62 NW23G29   29.71S
MUNCIE*        CLOUDY    52  41  66 NW20G28   29.69R
INDIANAPOLIS   PTSUNNY   53  40  61 NW20G31   29.73R

$$
MIZ043>046-050>051-056>058-064>065-071>073-077>080-042000-
SOUTHWEST LOWER MICHIGAN

CITY           SKY/WX    TMP DP  RH WIND       PRES   REMARKS
BATTLE CREEK   LGT RAIN  46  42  86 NW15      29.61S
BENTON HARBOR  CLOUDY    43  35  73 NW15G31   29.74R
COLDWATER*     CLOUDY    46  41  83 NW15G23   29.61R
HILLSDALE*     CLOUDY    47  39  74 W21       29.58S
HOLLAND        LGT RAIN N/A N/A N/A NW16G23   29.68R
GRAND RAPIDS   LGT RAIN  45  41  86 N13G24    29.63R
KALAMAZOO      LGT RAIN  46  40  79 NW17G24   29.64R
STURGIS*       FLURRIES  45  41  86 NW14G29   29.63S
THREE RIVERS*  LGT RAIN  45  40  85 NW17G23   29.66R

$$
OHZ001>008-015>018-024>025-042000-
NORTHWEST OHIO

CITY           SKY/WX    TMP DP  RH WIND       PRES   REMARKS
WAUSEON*         N/A     52 N/A N/A W20G26    29.58S
DEFIANCE       CLOUDY    50  42  74 W9        29.62R
FINDLAY        LGT RAIN  51  45  79 W13       29.60R
TOLEDO EXPRESS CLOUDY    52  46  80 W13       29.58R
TOLEDO METCALF CLOUDY    55  47  74 SW15G28   29.58S
LIMA           LGT RAIN  49  45  86 W15       29.62R

$$
AND FOR LAKE MICHIGAN COASTAL AND OPEN LAKE BUOY OBSERVATIONS

STATION/POSITION TEMP    WIND        PRES    VSBY  WAVE
                 AIR SEA DIR/SP/G                  HT/PER
                 (F)     (DEG/KT/KT) (MB)    (MI)  (FT/S)
CALUMET HARBOR    46     330/ 18/ 22 1008.3R
MICHIGAN CITY     43     330/ 33/ 35   N/A
BURNS HARBOR      44     340/ 21     1008.8R
SAINT JOSEPH      44     330/ 25/ 31 1007.8R
SOUTH LAKE BUOY   41 40  360/ 25/ 33 1007.3R         8/ 7
4 MI NW BRIDGMAN  43 47                N/A          10/ 7

$$
&&




USA.gov is the U.S. government's official web portal to all federal, state and local government web resources and services.